Printer-friendly version

IAU Minor Planet Center

Minor Planet Center

MPEC 2006-S19 : 2006 SE6

The following Minor Planet Electronic Circular may be linked-to from your own Web pages, but must not otherwise be redistributed electronically.


Read MPEC 2006-S18 Read MPEC 2006-S20


M.P.E.C. 2006-S19                                Issued 2006 Sept. 18, 19:39 UT

     The Minor Planet Electronic Circulars contain information on unusual
         minor planets and routine data on comets.  They are published
   on behalf of Commission 20 of the International Astronomical Union by the
          Minor Planet Center, Smithsonian Astrophysical Observatory,
                          Cambridge, MA 02138, U.S.A.

                  Supported in part by the Brinson Foundation
                  Supported in part by the TABASGO Foundation
             Prepared using the Tamkin Foundation Computer Network

                              MPC@CFA.HARVARD.EDU
          URL http://cfa-www.harvard.edu/iau/mpc.html  ISSN 1523-6714

                                   2006 SE6

Observations:
     K06S06E*tC2006 09 17.21113 22 06 35.65 -06 04 05.1          19.1 V ES019291
     K06S06E tC2006 09 17.21488 22 06 33.41 -06 04 07.2          19.0 V ES019291
     K06S06E tC2006 09 17.21868 22 06 31.10 -06 04 10.5          19.1 V ES019291
     K06S06E tC2006 09 17.23017 22 06 24.11 -06 04 18.8          19.1 V ES019291
     K06S06E tC2006 09 17.23406 22 06 21.77 -06 04 21.3          19.0 V ES019291
     K06S06E tC2006 09 17.23777 22 06 19.56 -06 04 24.3          19.0 V ES019291
     K06S06E tC2006 09 17.25480 22 06 09.24 -06 04 36.0          19.1 V ES019291
     K06S06E tC2006 09 17.25859 22 06 06.96 -06 04 38.4          19.1 V ES019291
     K06S06E tC2006 09 17.26233 22 06 04.72 -06 04 41.1          19.0 V ES019291
     K06S06E tC2006 09 17.28966 22 05 48.23 -06 05 00.0          19.1 V ES019291
     K06S06E tC2006 09 17.29385 22 05 45.74 -06 05 02.5          19.0 V ES019291
     K06S06E tC2006 09 17.29764 22 05 43.39 -06 05 05.2          19.0 V ES019291
     K06S06E  C2006 09 18.11755 21 58 14.28 -06 14 21.0          19.1 R ES019734
     K06S06E  C2006 09 18.12094 21 58 12.43 -06 14 23.5          18.3 R ES019734
     K06S06E  C2006 09 18.13665 21 58 03.35 -06 14 33.9          18.4 R ES019734
     K06S06E  C2006 09 18.14304 21 58 01.20 -06 14 28.8          19.1 V ES019703
     K06S06E tC2006 09 18.14695 21 57 59.04 -06 14 29.9          19.3 V ES019291
     K06S06E  C2006 09 18.14835 21 57 58.17 -06 14 32.4          18.4 V ES019703
     K06S06E  C2006 09 18.14884 21 57 56.36 -06 14 41.9          19.1 R ES019734
     K06S06E tC2006 09 18.15068 21 57 56.90 -06 14 32.3          19.3 V ES019291
     K06S06E  C2006 09 18.15181 21 57 54.69 -06 14 43.8          18.5 R ES019734
     K06S06E  C2006 09 18.15365 21 57 55.11 -06 14 35.5          18.7 V ES019703
     K06S06E tC2006 09 18.15462 21 57 54.63 -06 14 35.2          19.3 V ES019291
     K06S06E  C2006 09 18.15892 21 57 52.05 -06 14 39.0          18.6 V ES019703
     K06S06E  C2006 09 18.19680 21 57 30.37 -06 15 02.7          18.9 R ES019854
     K06S06E  C2006 09 18.20018 21 57 28.40 -06 15 04.7          18.1 R ES019854
     K06S06E 5C2006 09 18.20185 21 57 28.09 -06 15 09.0          19.0 R ES019673
     K06S06E  C2006 09 18.20354 21 57 26.53 -06 15 07.4          18.7 R ES019854
     K06S06E 5C2006 09 18.20683 21 57 25.24 -06 15 12.4                 ES019673
     K06S06E 5C2006 09 18.21181 21 57 22.39 -06 15 15.5                 ES019673
     K06S06E 5C2006 09 18.22102 21 57 17.17 -06 15 21.1                 ES019673
     K06S06E tC2006 09 18.31871 21 56 20.72 -06 16 17.8          19.2 V ES019291
     K06S06E tC2006 09 18.32290 21 56 18.36 -06 16 20.3          19.2 V ES019291
     K06S06E tC2006 09 18.32727 21 56 15.88 -06 16 23.5          18.0 V ES019291
     K06S06E  C2006 09 18.46920 21 55 04.90 -06 16 07.1          18.8 V ES019E12
     K06S06E  C2006 09 18.46961 21 55 04.65 -06 16 07.4          18.9 V ES019E12
     K06S06E  C2006 09 18.47002 21 55 04.44 -06 16 07.7          18.4 V ES019E12
     K06S06E  C2006 09 18.47044 21 55 04.15 -06 16 08.2          18.5 V ES019E12
     K06S06E  C2006 09 18.47084 21 55 03.97 -06 16 08.3          18.7 V ES019E12

Observer details:
291 LPL/Spacewatch II.  Observer R. S. McMillan.  1.8-m f/2.7 reflector + CCD.
673 Table Mountain Observatory, Wrightwood.  Observer J. Young.  0.61-m f/16
    Cassegrain + CCD.
703 Catalina Sky Survey.  Observer R. A. Kowalski.  Measurers E. C. Beshore,
    E. J. Christensen, G. J. Garradd, A. R. Gibbs, A. D. Grauer, R. E. Hill,
    R. A. Kowalski, S. M. Larson, R. H. McNaught.  0.68-m Schmidt + CCD.
734 Farpoint Observatory.  Observer D. Tibbets.  Measurer G. Hug.  0.7-m
    reflector + CCD.
854 Sabino Canyon Observatory, Tucson.  Observer J. E. McGaha.  0.36-m f/10.0
    Schmidt-Cassegrain + CCD.
E12 Siding Spring Survey.  Observer R. H. McNaught.  Measurers E. C. Beshore,
    E. J. Christensen, G. J. Garradd, A. R. Gibbs, A. D. Grauer, R. E. Hill,
    R. A. Kowalski, S. M. Larson, R. H. McNaught.  0.5-m Uppsala Schmidt + CCD.

Orbital elements:
2006 SE6                                                 Earth MOID = 0.0370 AU
Epoch 2006 Sept. 22.0 TT = JDT 2454000.5                MPC
M 190.30280              (2000.0)            P               Q
n   1.36561046     Peri.  182.88437     -0.98610031     -0.16515276
a   0.8046089      Node   347.56488     +0.15408125     -0.86801561
e   0.3469198      Incl.    4.84476     +0.06217028     -0.46826644
P   0.72           H   23.0           G   0.15           U   8
Residuals in seconds of arc
060917 291  0.0   0.1-    060918 734  1.3+  0.2-    060918 673  0.2-  0.1+
060917 291  0.4+  0.5+    060918 734  0.1-  0.3-    060918 854  0.4+  0.1+
060917 291  0.2+  0.1-    060918 703  0.3+  0.6-    060918 673  0.2-  0.1-
060917 291  0.4-  0.2-    060918 291  0.1+  0.2+    060918 673  0.2-  0.0
060917 291  0.2-  0.0     060918 703  0.4+  0.7-    060918 673  0.7+  0.3+
060917 291  0.3+  0.4-    060918 734  0.3-  0.4-    060918 291  0.1+  0.2+
060917 291  0.1-  0.1-    060918 291  0.0   0.3+    060918 291  0.2+  0.2+
060917 291  0.0   0.1+    060918 734  0.2+  0.4-    060918 291  0.1+  0.5-
060917 291  0.3+  0.0     060918 703  0.1-  0.2-    060918 E12  0.0   0.2+
060917 291  0.1-  0.1-    060918 291  0.3-  0.0     060918 E12  0.3-  0.1+
060917 291  0.4+  0.2+    060918 703  0.7-  0.3-    060918 E12  0.1+  0.1+
060917 291  0.7-  0.1+    060918 854  0.1-  0.5+    060918 E12  0.7-  0.2-
060918 734  0.0   0.0     060918 854  0.5-  0.7+    060918 E12  0.0   0.0

Ephemeris:
2006 SE6                 a,e,i = 0.80, 0.35, 5                   q = 0.5255
Date    TT    R. A. (2000) Decl.     Delta      r     Elong.  Phase     V
2006 09 12    23 01.80   -04 44.3    0.0772   1.083   175.5     4.1    18.0
2006 09 17    22 08.59   -06 00.5    0.0841   1.083   157.5    20.8    18.8
2006 09 22    21 26.96   -06 45.9    0.0956   1.081   142.4    34.5    19.5
2006 09 27    20 57.05   -07 08.2    0.110    1.077   130.3    45.3    20.1
2006 10 02    20 36.39   -07 16.2    0.126    1.070   120.4    53.8    20.6
2006 10 07    20 22.31   -07 15.9    0.143    1.062   112.1    60.7    21.1
2006 10 12    20 12.73   -07 11.1    0.159    1.051   105.0    66.6    21.5
2006 10 17    20 06.23   -07 03.7    0.175    1.037    98.6    71.8    21.8
2006 10 22    20 01.79   -06 54.7    0.190    1.022    92.7    76.6    22.1

Kyle E. Smalley              (C) Copyright 2006 MPC           M.P.E.C. 2006-S19

Read MPEC 2006-S18 Read MPEC 2006-S20


Our Web policy. Index to the CBAT/MPC/ICQ pages.


Valid HTML 4.01!